Location: Dalton
(34.7700°N, 84.9700°W)
Time: 01:59:03
(UTC-04:00)

Envisat - Pass Details

Date: 14 October 2017
Orbit: 764 x 766 km, 98.2° (Epoch: 22 October)

Event Time Altitude Azimuth Distance (km) Brightness Sun altitude
Exits shadow 20:20:00 14° 44° (NE) 2,054 4.8 -16.0°
Drops below altitude 10° 20:21:21 10° 30° (NNE) 2,305 5.2 -16.2°
Sets 20:24:32 0° 9° (N) 3,236 6.2 -16.9°
